• MPC Preparation (Info)

  • MPEC 2016-O191: 2014 AM55

    The following Minor Planet Electronic Circular may be linked-to from your own Web pages, but must not otherwise be redistributed electronically.

    A form allowing access to any MPEC is at the bottom of this page.


    Read MPEC 2016-O190 Read MPEC 2016-O192


    M.P.E.C. 2016-O191                               Issued 2016 July 17, 15:40 UT
    
         The Minor Planet Electronic Circulars contain information on unusual
             minor planets and routine data on comets.  They are published
        on behalf of Division F of the International Astronomical Union by the
              Minor Planet Center, Smithsonian Astrophysical Observatory,
                              Cambridge, MA 02138, U.S.A.
    
                 Prepared using the Tamkin Foundation Computer Network
    
                                  MPC@CFA.HARVARD.EDU
                URL https://www.minorplanetcenter.net/    ISSN 1523-6714
    
                                       2014 AM55
    
    Observations:
         K14A55M  C2011 01 30.47735 08 46 41.654+17 36 50.12         21.9 wLEO191F51
         K14A55M  C2011 01 30.49244 08 46 41.590+17 36 50.30         21.8 wLEO191F51
         K14A55M  C2011 01 30.50873 08 46 41.526+17 36 50.66         21.7 wLEO191F51
         K14A55M  C2011 01 30.52381 08 46 41.459+17 36 50.94         21.9 wLEO191F51
         K14A55M  C2013 02 03.34087 08 55 01.837+17 19 43.71         21.8 wLEO191F51
         K14A55M  C2013 02 03.35549 08 55 01.776+17 19 44.04         22.2 wLEO191F51
         K14A55M  C2013 02 03.37015 08 55 01.710+17 19 44.36         21.9 wLEO191F51
         K14A55M  C2013 02 03.38480 08 55 01.651+17 19 44.55         21.9 wLEO191F51
         K14A55M  C2013 03 03.25695 08 53 08.562+17 28 03.40         22.5 wLEO191F51
         K14A55M  C2013 03 03.27125 08 53 08.498+17 28 04.00         22.0 wLEO191F51
         K14A55M  C2013 03 03.28564 08 53 08.449+17 28 04.01         22.3 wLEO191F51
         K14A55M  C2013 03 03.29999 08 53 08.400+17 28 04.27         22.0 wLEO191F51
         K14A55M* C2014 01 05.42911 09 01 23.976+17 00 44.50         22.0 wLEO191F51
         K14A55M  C2014 01 05.44427 09 01 23.912+17 00 44.65         22.1 wLEO191F51
         K14A55M  C2014 01 05.45941 09 01 23.853+17 00 44.80         22.1 wLEO191F51
         K14A55M  C2014 01 05.47458 09 01 23.807+17 00 44.99         22.0 wLEO191F51
         K14A55M  C2014 01 24.37262 09 00 07.265+17 06 33.94         22.3 wLEO191F51
         K14A55M  C2014 01 24.38579 09 00 07.195+17 06 34.12         21.9 wLEO191F51
         K14A55M  C2014 01 24.39897 09 00 07.145+17 06 34.37         21.9 wLEO191F51
         K14A55M  C2014 01 24.41218 09 00 07.097+17 06 34.70         21.8 wLEO191F51
         K14A55M  C2014 02 26.40789 08 57 48.253+17 16 58.55         21.6 wLEO191F51
         K14A55M  C2014 02 26.42090 08 57 48.217+17 16 58.80         21.5 wLEO191F51
         K14A55M  C2014 02 26.43392 08 57 48.152+17 16 59.06         22.0 wLEO191F51
         K14A55M  C2014 02 26.44693 08 57 48.099+17 16 59.28         21.9 wLEO191F51
         K14A55M  C2014 05 17.26051 08 56 07.380+17 25 33.80         22.2 wLEO191F51
         K14A55M  C2014 05 17.26515 08 56 07.402+17 25 33.77         22.1 wLEO191F51
         K14A55M  C2014 05 17.26979 08 56 07.416+17 25 33.55         22.1 wLEO191F51
         K14A55M  C2014 05 17.27441 08 56 07.424+17 25 33.72         22.1 wLEO191F51
         K14A55M  C2015 01 17.40902 09 04 59.628+16 53 54.32         22.1 wLEO191F51
         K14A55M  C2015 01 17.42103 09 04 59.575+16 53 54.56         21.9 wLEO191F51
         K14A55M  C2015 01 17.43306 09 04 59.527+16 53 54.97         22.0 wLEO191F51
         K14A55M  C2015 01 17.44510 09 04 59.482+16 53 55.16         22.0 wLEO191F51
         K14A55M  C2015 01 17.56997 09 04 58.956+16 53 57.60         21.8 wLEO191F51
         K14A55M  C2015 01 17.58225 09 04 58.904+16 53 57.76         21.8 wLEO191F51
         K14A55M  C2015 01 17.59461 09 04 58.855+16 53 57.99         21.9 wLEO191F51
         K14A55M  C2015 01 17.60701 09 04 58.797+16 53 58.20         22.0 wLEO191F51
    
    Observer details:
    F51 Pan-STARRS 1, Haleakala.  Observers B. Gibson, T. Goggia, N. Primak,
        A. Schultz, M. Willman.  Measurers K. Chambers, S. Chastel, Y.-T. Chen,
        L. Denneau, H. Flewelling, M. Holman, M. Huber, R. Jedicke, M. Lackner,
        E. Lilly, H.-W. Lin, E. Magnier, M. Micheli, M. Payne, P. Veres,
        R. Wainscoat, C. Waters, R. Weryk.  1.8-m Ritchey-Chretien + CCD.
    
    Orbital elements:
    2014 AM55
    Epoch 2016 July 31.0 TT = JDT 2457600.5                 MPC
    M 268.65930              (2000.0)            P               Q
    n   0.00302487     Peri.  110.29097     -0.46227087     +0.88186030
    a  47.3512592      Node   131.82251     -0.85296916     -0.41358692
    e   0.1400376      Incl.    7.16026     -0.24238246     -0.22642497
    P 326              H    4.9           G   0.15           U   3
    Residuals in seconds of arc
    110130 F51  0.1-  0.1+    140105 F51  0.1+  0.2+    140517 F51  0.1-  0.1+
    110130 F51  0.0   0.0     140105 F51  0.0   0.1+    140517 F51  0.1+  0.1+
    110130 F51  0.1+  0.0     140105 F51  0.0   0.0     140517 F51  0.2+  0.1-
    110130 F51  0.1+  0.0     140105 F51  0.2+  0.0     140517 F51  0.2+  0.1+
    130203 F51  0.0   0.1-    140124 F51  0.1+  0.0     150117 F51  0.0   0.1-
    130203 F51  0.0   0.1-    140124 F51  0.1-  0.0     150117 F51  0.0   0.1-
    130203 F51  0.0   0.0     140124 F51  0.0   0.0     150117 F51  0.0   0.1+
    130203 F51  0.1+  0.1-    140124 F51  0.1+  0.0     150117 F51  0.1+  0.1+
    130303 F51  0.0   0.1-    140226 F51  0.2-  0.3-    150117 F51  0.0   0.1+
    130303 F51  0.2-  0.3+    140226 F51  0.1+  0.2-    150117 F51  0.0   0.1+
    130303 F51  0.1-  0.0     140226 F51  0.1-  0.2-    150117 F51  0.0   0.1+
    130303 F51  0.1-  0.1+    140226 F51  0.2-  0.2-    150117 F51  0.1-  0.0
    
    Ephemeris:
    2014 AM55                a,e,i = 47.35, 0.14, 7                  q = 40.720
    Date    TT    R. A. (2000) Decl.     Delta      r     Elong.  Phase     V
    2016 06 17    09 06 08.0 +16 59 55  49.1079 48.4332    47.9     0.9    21.9
    ...
    2016 07 02    09 07 11.7 +16 55 34  49.2687 48.4281    33.9     0.7    21.9
    ...
    2016 07 10    09 07 49.9 +16 52 56  49.3337 48.4254    26.4     0.5    21.9
    ...
    2016 07 16    09 08 19.9 +16 50 51  49.3720 48.4234    20.8     0.4    21.9
    2016 07 17    09 08 25.0 +16 50 30  49.3775 48.4231    19.9     0.4    21.9
    2016 07 18    09 08 30.2 +16 50 09  49.3827 48.4227    19.0     0.4    21.9
    ...
    2016 07 24    09 09 01.5 +16 47 59  49.4084 48.4207    13.4     0.3    21.9
    ...
    2016 08 01    09 09 44.1 +16 45 01  49.4275 48.4180     5.9     0.1    21.8
    ...
    2016 08 16    09 11 05.0 +16 39 24  49.4151 48.4129     8.2     0.2    21.8
    
    A. U. Tomatic                (C) Copyright 2016 MPC           M.P.E.C. 2016-O191
    

    Read MPEC 2016-O190 Read MPEC 2016-O192


    MPEC number:

    Enter an MPEC number in one of the following forms:

    • 1997-B01 (the full form)
    • J97B01 (the packed version of the full form)
    • B01 (the abbreviated form)